FLOCK 2E'-16

Last updated on Sat Jun 02 2018 00:15:06 GMT+0000 (Coordinated Universal Time)

1 41763U 98067KK 18152.14364457 .17380796 12355-4 12196-2 0 9994 2 41763 51.6065 41.4007 0012067 257.6830 102.5693 16.39967936 97796

Satellite not in orbit